Saint Bonnet de Bellac- Haute Vienne - France
Donnes mto: vendredi, 06/07/2012
Date Horaire Temp. E. Hum. E. P.atmo. Pluie Vent Direction Direction Ensoleilleme Solaire P. de rose Temp au vent Rafales
06/07/2012 00:00 14,2 C 89 % 1011,5 hPa 0,0 mm 4,7 km/h (1 Bft) SO 225 0 min 0 W/m 12,4 C 14,2 C 6,8 km/h (2 Bft)
06/07/2012 00:10 14,1 C 90 % 1011,7 hPa 0,0 mm 2,9 km/h (1 Bft) S-SO 202 0 min 0 W/m 12,5 C 14,1 C 8,3 km/h (2 Bft)
06/07/2012 00:20 14,1 C 91 % 1011,8 hPa 0,0 mm 3,2 km/h (1 Bft) S-SO 202 0 min 0 W/m 12,7 C 14,1 C 4,0 km/h (1 Bft)
06/07/2012 00:30 14,1 C 91 % 1011,6 hPa 0,0 mm 6,5 km/h (2 Bft) S 180 0 min 0 W/m 12,7 C 14,1 C 10,4 km/h (2 Bft)
06/07/2012 00:40 14,1 C 91 % 1011,6 hPa 0,1 mm 4,3 km/h (1 Bft) S-SO 202 0 min 0 W/m 12,7 C 14,1 C 8,6 km/h (2 Bft)
06/07/2012 00:50 14,1 C 91 % 1011,7 hPa 0,0 mm 1,4 km/h (1 Bft) SO 225 0 min 0 W/m 12,7 C 14,1 C 2,9 km/h (1 Bft)
06/07/2012 01:00 14,0 C 91 % 1011,6 hPa 0,0 mm 2,9 km/h (1 Bft) SO 225 0 min 0 W/m 12,6 C 14,0 C 4,3 km/h (1 Bft)
06/07/2012 01:10 14,0 C 91 % 1011,7 hPa 0,0 mm 3,2 km/h (1 Bft) SO 225 0 min 0 W/m 12,6 C 14,0 C 4,0 km/h (1 Bft)
06/07/2012 01:20 14,1 C 91 % 1011,6 hPa 0,0 mm 2,5 km/h (1 Bft) SO 225 0 min 0 W/m 12,7 C 14,1 C 6,5 km/h (2 Bft)
06/07/2012 01:30 14,1 C 91 % 1011,6 hPa 0,0 mm 6,5 km/h (2 Bft) SO 225 0 min 0 W/m 12,7 C 14,1 C 9,4 km/h (2 Bft)
06/07/2012 01:40 14,1 C 91 % 1011,4 hPa 0,0 mm 4,3 km/h (1 Bft) SO 225 0 min 0 W/m 12,7 C 14,1 C 4,3 km/h (1 Bft)
06/07/2012 01:50 14,1 C 91 % 1011,4 hPa 0,1 mm 6,5 km/h (2 Bft) S-SO 202 0 min 0 W/m 12,7 C 14,1 C 13,7 km/h (3 Bft)
06/07/2012 02:00 14,0 C 91 % 1011,4 hPa 0,1 mm 4,7 km/h (1 Bft) SO 225 0 min 0 W/m 12,6 C 14,0 C 9,7 km/h (2 Bft)
06/07/2012 02:10 13,8 C 91 % 1011,3 hPa 0,0 mm 3,2 km/h (1 Bft) S 180 0 min 0 W/m 12,4 C 13,8 C 4,0 km/h (1 Bft)
06/07/2012 02:20 13,7 C 91 % 1011,3 hPa 0,0 mm 5,8 km/h (2 Bft) S 180 0 min 0 W/m 12,3 C 13,7 C 6,8 km/h (2 Bft)
06/07/2012 02:30 13,6 C 91 % 1011,3 hPa 0,0 mm 2,5 km/h (1 Bft) SO 225 0 min 0 W/m 12,2 C 13,6 C 6,8 km/h (2 Bft)
06/07/2012 02:40 13,4 C 91 % 1011,4 hPa 0,0 mm 2,2 km/h (1 Bft) S 180 0 min 0 W/m 12,0 C 13,4 C 3,2 km/h (1 Bft)
06/07/2012 02:50 13,4 C 91 % 1011,4 hPa 0,0 mm 1,8 km/h (1 Bft) SO 225 0 min 0 W/m 12,0 C 13,4 C 7,2 km/h (2 Bft)
06/07/2012 03:02 13,3 C 91 % 1011,5 hPa 0,0 mm 0,7 km/h (0 Bft) SO 225 0 min 0 W/m 11,9 C 13,3 C 0,7 km/h (0 Bft)
06/07/2012 03:10 13,2 C 91 % 1011,2 hPa 0,0 mm 0,4 km/h (0 Bft) S-SO 202 0 min 0 W/m 11,8 C 13,2 C 4,0 km/h (1 Bft)
06/07/2012 03:20 13,1 C 91 % 1011,2 hPa 0,0 mm 3,6 km/h (1 Bft) S-SO 202 0 min 0 W/m 11,7 C 13,1 C 4,3 km/h (1 Bft)
06/07/2012 03:30 13,1 C 92 % 1011,2 hPa 0,0 mm 1,8 km/h (1 Bft) S-SO 202 0 min 0 W/m 11,8 C 13,1 C 1,8 km/h (1 Bft)
06/07/2012 03:40 13,1 C 92 % 1011,2 hPa 0,0 mm 3,6 km/h (1 Bft) S 180 0 min 0 W/m 11,8 C 13,1 C 6,8 km/h (2 Bft)
06/07/2012 03:50 12,9 C 92 % 1011,2 hPa 0,0 mm 2,5 km/h (1 Bft) O-SO 247 0 min 0 W/m 11,6 C 12,9 C 6,1 km/h (2 Bft)
06/07/2012 04:00 13,1 C 92 % 1011,2 hPa 0,0 mm 4,3 km/h (1 Bft) SO 225 0 min 0 W/m 11,8 C 13,1 C 4,3 km/h (1 Bft)
06/07/2012 04:10 13,1 C 92 % 1011,1 hPa 0,0 mm 2,5 km/h (1 Bft) S-SO 202 0 min 0 W/m 11,8 C 13,1 C 5,4 km/h (2 Bft)
06/07/2012 04:20 13,1 C 92 % 1011,1 hPa 0,0 mm 3,2 km/h (1 Bft) SO 225 0 min 0 W/m 11,8 C 13,1 C 4,3 km/h (1 Bft)
06/07/2012 04:30 13,1 C 93 % 1011,1 hPa 0,0 mm 2,2 km/h (1 Bft) SO 225 0 min 0 W/m 12,0 C 13,1 C 6,8 km/h (2 Bft)
06/07/2012 04:40 12,9 C 92 % 1011,1 hPa 0,0 mm 4,7 km/h (1 Bft) SO 225 0 min 0 W/m 11,6 C 12,9 C 7,2 km/h (2 Bft)
06/07/2012 04:50 12,9 C 93 % 1011,1 hPa 0,0 mm 2,9 km/h (1 Bft) O-SO 247 0 min 0 W/m 11,8 C 12,9 C 6,1 km/h (2 Bft)
06/07/2012 05:00 12,9 C 93 % 1011,1 hPa 0,0 mm 7,6 km/h (2 Bft) S-SO 202 0 min 0 W/m 11,8 C 12,9 C 8,3 km/h (2 Bft)
06/07/2012 05:10 13,1 C 93 % 1011,1 hPa 0,0 mm 6,5 km/h (2 Bft) S-SO 202 0 min 0 W/m 12,0 C 13,1 C 8,6 km/h (2 Bft)
06/07/2012 05:20 13,2 C 93 % 1011,1 hPa 0,0 mm 2,9 km/h (1 Bft) SO 225 0 min 0 W/m 12,1 C 13,2 C 4,3 km/h (1 Bft)
06/07/2012 05:30 13,2 C 93 % 1011,1 hPa 0,0 mm 2,9 km/h (1 Bft) O-SO 247 0 min 0 W/m 12,1 C 13,2 C 4,0 km/h (1 Bft)
06/07/2012 05:40 13,1 C 93 % 1011,1 hPa 0,0 mm 2,9 km/h (1 Bft) S-SO 202 0 min 0 W/m 12,0 C 13,1 C 4,3 km/h (1 Bft)
06/07/2012 05:50 12,9 C 93 % 1011,1 hPa 0,0 mm 4,0 km/h (1 Bft) S-SO 202 0 min 0 W/m 11,8 C 12,9 C 7,6 km/h (2 Bft)
06/07/2012 06:00 12,9 C 93 % 1011,2 hPa 0,0 mm 4,3 km/h (1 Bft) S-SO 202 0 min 0 W/m 11,8 C 12,9 C 8,3 km/h (2 Bft)
06/07/2012 06:10 12,8 C 93 % 1011,1 hPa 0,0 mm 5,8 km/h (2 Bft) SO 225 0 min 0 W/m 11,7 C 12,8 C 7,2 km/h (2 Bft)
06/07/2012 06:20 12,8 C 93 % 1011,2 hPa 0,0 mm 4,3 km/h (1 Bft) S-SO 202 0 min 0 W/m 11,7 C 12,8 C 6,8 km/h (2 Bft)
06/07/2012 06:30 12,8 C 93 % 1011,2 hPa 0,0 mm 3,2 km/h (1 Bft) S-SO 202 0 min 0 W/m 11,7 C 12,8 C 6,1 km/h (2 Bft)
06/07/2012 06:40 12,6 C 93 % 1011,3 hPa 0,0 mm 5,4 km/h (2 Bft) S 180 0 min 0 W/m 11,5 C 12,6 C 9,4 km/h (2 Bft)
06/07/2012 06:50 12,6 C 93 % 1011,2 hPa 0,0 mm 3,6 km/h (1 Bft) S-SO 202 0 min 0 W/m 11,5 C 12,6 C 7,9 km/h (2 Bft)
06/07/2012 07:00 12,7 C 93 % 1011,1 hPa 0,0 mm 4,0 km/h (1 Bft) S-SO 202 0 min 0 W/m 11,6 C 12,7 C 7,9 km/h (2 Bft)
06/07/2012 07:10 12,8 C 94 % 1011,2 hPa 0,0 mm 1,1 km/h (1 Bft) S 180 0 min 0 W/m 11,9 C 12,8 C 4,3 km/h (1 Bft)
06/07/2012 07:20 13,2 C 94 % 1011,2 hPa 0,1 mm 5,8 km/h (2 Bft) S 180 0 min 0 W/m 12,3 C 13,2 C 10,4 km/h (2 Bft)
06/07/2012 07:30 13,5 C 93 % 1011,2 hPa 0,0 mm 2,9 km/h (1 Bft) S-SO 202 0 min 0 W/m 12,4 C 13,5 C 6,5 km/h (2 Bft)
06/07/2012 07:40 13,6 C 93 % 1011,4 hPa 0,0 mm 3,2 km/h (1 Bft) SO 225 0 min 0 W/m 12,5 C 13,6 C 4,3 km/h (1 Bft)
06/07/2012 07:50 13,8 C 93 % 1011,5 hPa 0,0 mm 4,0 km/h (1 Bft) S 180 0 min 0 W/m 12,7 C 13,8 C 6,5 km/h (2 Bft)
06/07/2012 08:00 13,8 C 93 % 1011,4 hPa 0,0 mm 2,9 km/h (1 Bft) S-SO 202 0 min 0 W/m 12,7 C 13,8 C 4,0 km/h (1 Bft)
06/07/2012 08:10 13,8 C 92 % 1011,4 hPa 0,0 mm 3,6 km/h (1 Bft) S-SO 202 0 min 0 W/m 12,5 C 13,8 C 8,6 km/h (2 Bft)
06/07/2012 08:20 14,1 C 92 % 1011,5 hPa 0,0 mm 7,6 km/h (2 Bft) SO 225 0 min 0 W/m 12,8 C 14,1 C 15,1 km/h (3 Bft)
06/07/2012 08:30 14,3 C 91 % 1011,5 hPa 0,0 mm 5,8 km/h (2 Bft) S-SO 202 0 min 0 W/m 12,8 C 14,3 C 5,8 km/h (2 Bft)
06/07/2012 08:40 14,3 C 90 % 1011,6 hPa 0,0 mm 9,0 km/h (2 Bft) SO 225 0 min 0 W/m 12,7 C 14,3 C 14,0 km/h (3 Bft)
06/07/2012 08:50 14,4 C 90 % 1011,6 hPa 0,0 mm 7,9 km/h (2 Bft) S 180 0 min 0 W/m 12,8 C 14,4 C 14,4 km/h (3 Bft)
06/07/2012 09:00 14,6 C 89 % 1011,5 hPa 0,0 mm 8,6 km/h (2 Bft) S-SO 202 0 min 0 W/m 12,8 C 14,6 C 14,0 km/h (3 Bft)
06/07/2012 09:10 14,8 C 88 % 1011,5 hPa 0,0 mm 5,4 km/h (2 Bft) SO 225 0 min 0 W/m 12,8 C 14,8 C 5,4 km/h (2 Bft)
06/07/2012 09:20 14,9 C 87 % 1011,5 hPa 0,0 mm 7,9 km/h (2 Bft) O-SO 247 0 min 0 W/m 12,8 C 14,9 C 10,1 km/h (2 Bft)
06/07/2012 09:30 15,4 C 87 % 1011,5 hPa 0,0 mm 6,8 km/h (2 Bft) S-SO 202 0 min 0 W/m 13,2 C 15,4 C 9,4 km/h (2 Bft)
06/07/2012 09:40 15,6 C 86 % 1011,7 hPa 0,0 mm 8,3 km/h (2 Bft) S-SO 202 0 min 0 W/m 13,3 C 15,6 C 14,8 km/h (3 Bft)
06/07/2012 09:50 16,1 C 85 % 1011,7 hPa 0,0 mm 13,0 km/h (3 Bft) S 180 0 min 0 W/m 13,6 C 16,1 C 23,4 km/h (4 Bft)
06/07/2012 10:00 16,3 C 84 % 1011,7 hPa 0,0 mm 8,6 km/h (2 Bft) S-SO 202 0 min 0 W/m 13,6 C 16,3 C 8,6 km/h (2 Bft)
06/07/2012 10:10 16,2 C 83 % 1011,8 hPa 0,0 mm 6,8 km/h (2 Bft) SO 225 0 min 0 W/m 13,3 C 16,2 C 6,8 km/h (2 Bft)
06/07/2012 10:20 15,8 C 84 % 1011,8 hPa 0,0 mm 5,4 km/h (2 Bft) SO 225 0 min 0 W/m 13,1 C 15,8 C 7,9 km/h (2 Bft)
06/07/2012 10:30 15,6 C 85 % 1011,8 hPa 0,0 mm 8,3 km/h (2 Bft) S 180 0 min 0 W/m 13,1 C 15,6 C 14,4 km/h (3 Bft)
06/07/2012 10:40 16,1 C 84 % 1011,7 hPa 0,0 mm 5,8 km/h (2 Bft) SO 225 0 min 0 W/m 13,4 C 16,1 C 6,5 km/h (2 Bft)
06/07/2012 10:50 17,1 C 82 % 1011,7 hPa 0,0 mm 2,2 km/h (1 Bft) S-SO 202 0 min 0 W/m 14,0 C 17,1 C 3,6 km/h (1 Bft)
06/07/2012 11:00 17,4 C 79 % 1011,7 hPa 0,0 mm 9,7 km/h (2 Bft) S-SO 202 0 min 0 W/m 13,7 C 17,4 C 15,5 km/h (3 Bft)
06/07/2012 11:10 17,4 C 79 % 1011,7 hPa 0,0 mm 10,8 km/h (2 Bft) SO 225 0 min 0 W/m 13,7 C 17,4 C 16,9 km/h (3 Bft)
06/07/2012 11:20 17,5 C 77 % 1011,7 hPa 0,0 mm 8,6 km/h (2 Bft) S 180 0 min 0 W/m 13,4 C 17,5 C 14,8 km/h (3 Bft)
06/07/2012 11:30 17,9 C 77 % 1011,8 hPa 0,0 mm 11,2 km/h (2 Bft) S-SO 202 0 min 0 W/m 13,8 C 17,9 C 13,7 km/h (3 Bft)
06/07/2012 11:40 17,8 C 74 % 1011,7 hPa 0,0 mm 8,3 km/h (2 Bft) SO 225 0 min 0 W/m 13,1 C 17,8 C 11,5 km/h (2 Bft)
06/07/2012 11:50 17,8 C 76 % 1011,7 hPa 0,0 mm 11,5 km/h (2 Bft) S-SO 202 0 min 0 W/m 13,5 C 17,8 C 11,5 km/h (2 Bft)
06/07/2012 12:00 17,9 C 75 % 1011,7 hPa 0,0 mm 11,2 km/h (2 Bft) S-SO 202 0 min 0 W/m 13,4 C 17,9 C 15,1 km/h (3 Bft)
06/07/2012 12:10 18,3 C 73 % 1011,6 hPa 0,0 mm 7,9 km/h (2 Bft) SO 225 0 min 0 W/m 13,4 C 18,3 C 11,2 km/h (2 Bft)
06/07/2012 12:20 18,2 C 74 % 1011,6 hPa 0,0 mm 3,6 km/h (1 Bft) S-SO 202 0 min 0 W/m 13,5 C 18,2 C 4,3 km/h (1 Bft)
06/07/2012 12:30 18,1 C 73 % 1011,7 hPa 0,0 mm 7,9 km/h (2 Bft) O-SO 247 0 min 0 W/m 13,2 C 18,1 C 13,7 km/h (3 Bft)
06/07/2012 12:40 17,1 C 77 % 1011,9 hPa 0,5 mm 4,3 km/h (1 Bft) O-SO 247 0 min 0 W/m 13,0 C 17,1 C 8,3 km/h (2 Bft)
06/07/2012 12:50 16,2 C 82 % 1011,9 hPa 0,1 mm 3,2 km/h (1 Bft) SO 225 0 min 0 W/m 13,1 C 16,2 C 3,2 km/h (1 Bft)
06/07/2012 13:00 15,8 C 84 % 1011,8 hPa 0,1 mm 4,7 km/h (1 Bft) S-SO 202 0 min 0 W/m 13,1 C 15,8 C 6,5 km/h (2 Bft)
06/07/2012 13:10 15,9 C 87 % 1011,7 hPa 0,0 mm 3,2 km/h (1 Bft) S-SE 157 0 min 0 W/m 13,7 C 15,9 C 4,3 km/h (1 Bft)
06/07/2012 13:20 16,5 C 87 % 1011,9 hPa 0,0 mm 6,1 km/h (2 Bft) SO 225 0 min 0 W/m 14,3 C 16,5 C 9,7 km/h (2 Bft)
06/07/2012 13:30 17,1 C 87 % 1011,8 hPa 0,0 mm 10,1 km/h (2 Bft) SO 225 0 min 0 W/m 14,9 C 17,1 C 16,2 km/h (3 Bft)
06/07/2012 13:40 17,8 C 84 % 1011,8 hPa 0,0 mm 14,0 km/h (3 Bft) S-SO 202 0 min 0 W/m 15,1 C 17,8 C 19,4 km/h (3 Bft)
06/07/2012 13:50 18,4 C 81 % 1011,8 hPa 0,0 mm 6,1 km/h (2 Bft) S-SO 202 0 min 0 W/m 15,1 C 18,4 C 6,8 km/h (2 Bft)
06/07/2012 14:00 18,6 C 77 % 1012,0 hPa 0,0 mm 11,2 km/h (2 Bft) SO 225 0 min 0 W/m 14,5 C 18,6 C 14,8 km/h (3 Bft)
06/07/2012 14:10 18,7 C 74 % 1012,1 hPa 0,0 mm 11,9 km/h (2 Bft) SO 225 0 min 0 W/m 14,0 C 18,7 C 14,0 km/h (3 Bft)
06/07/2012 14:20 18,2 C 74 % 1012,2 hPa 0,0 mm 0,0 km/h (0 Bft) O 270 0 min 0 W/m 13,5 C 18,2 C 0,0 km/h (0 Bft)
06/07/2012 14:30 17,3 C 76 % 1012,2 hPa 0,1 mm 0,0 km/h (0 Bft) O-SO 247 0 min 0 W/m 13,0 C 17,3 C 0,0 km/h (0 Bft)
06/07/2012 14:40 16,6 C 81 % 1012,3 hPa 0,0 mm 2,9 km/h (1 Bft) SO 225 0 min 0 W/m 13,3 C 16,6 C 10,1 km/h (2 Bft)
06/07/2012 14:50 16,7 C 84 % 1012,1 hPa 0,0 mm 3,6 km/h (1 Bft) SO 225 0 min 0 W/m 14,0 C 16,7 C 7,9 km/h (2 Bft)
06/07/2012 15:00 17,3 C 84 % 1012,2 hPa 0,0 mm 6,5 km/h (2 Bft) S-SO 202 0 min 0 W/m 14,6 C 17,3 C 8,3 km/h (2 Bft)
06/07/2012 15:10 18,0 C 80 % 1012,2 hPa 0,0 mm 10,1 km/h (2 Bft) S-SO 202 0 min 0 W/m 14,5 C 18,0 C 14,4 km/h (3 Bft)
06/07/2012 15:20 18,5 C 75 % 1012,2 hPa 0,0 mm 9,0 km/h (2 Bft) SO 225 0 min 0 W/m 14,0 C 18,5 C 11,2 km/h (2 Bft)
06/07/2012 15:30 18,3 C 78 % 1012,2 hPa 0,0 mm 3,6 km/h (1 Bft) SO 225 0 min 0 W/m 14,4 C 18,3 C 10,1 km/h (2 Bft)
06/07/2012 15:40 18,0 C 78 % 1012,1 hPa 0,1 mm 4,3 km/h (1 Bft) SO 225 0 min 0 W/m 14,1 C 18,0 C 8,3 km/h (2 Bft)
06/07/2012 15:50 18,0 C 78 % 1012,1 hPa 0,0 mm 5,8 km/h (2 Bft) S 180 0 min 0 W/m 14,1 C 18,0 C 11,2 km/h (2 Bft)
06/07/2012 16:00 18,5 C 77 % 1012,1 hPa 0,0 mm 2,5 km/h (1 Bft) SO 225 0 min 0 W/m 14,4 C 18,5 C 4,3 km/h (1 Bft)
06/07/2012 16:10 19,1 C 74 % 1012,0 hPa 0,0 mm 4,7 km/h (1 Bft) O-SO 247 0 min 0 W/m 14,4 C 19,1 C 7,2 km/h (2 Bft)
06/07/2012 16:20 19,6 C 72 % 1012,0 hPa 0,0 mm 8,3 km/h (2 Bft) SO 225 0 min 0 W/m 14,4 C 19,6 C 12,2 km/h (2 Bft)
06/07/2012 16:30 19,9 C 73 % 1012,0 hPa 0,0 mm 7,9 km/h (2 Bft) S-SO 202 0 min 0 W/m 14,9 C 19,9 C 15,1 km/h (3 Bft)
06/07/2012 16:40 20,2 C 71 % 1012,2 hPa 0,0 mm 7,9 km/h (2 Bft) SO 225 0 min 0 W/m 14,8 C 20,2 C 12,2 km/h (2 Bft)
06/07/2012 16:50 20,4 C 72 % 1012,1 hPa 0,0 mm 0,7 km/h (0 Bft) O-SO 247 0 min 0 W/m 15,2 C 20,4 C 2,9 km/h (1 Bft)
06/07/2012 17:00 20,2 C 68 % 1012,1 hPa 0,0 mm 7,9 km/h (2 Bft) S 180 0 min 0 W/m 14,1 C 20,2 C 13,7 km/h (3 Bft)
06/07/2012 17:10 20,3 C 67 % 1012,1 hPa 0,0 mm 7,9 km/h (2 Bft) N 360 0 min 0 W/m 14,0 C 20,3 C 7,9 km/h (2 Bft)
06/07/2012 17:20 20,1 C 66 % 1012,1 hPa 0,0 mm 7,9 km/h (2 Bft) SO 225 0 min 0 W/m 13,5 C 20,1 C 12,2 km/h (2 Bft)
06/07/2012 17:30 20,4 C 64 % 1012,0 hPa 0,0 mm 4,3 km/h (1 Bft) SO 225 0 min 0 W/m 13,4 C 20,4 C 4,3 km/h (1 Bft)
06/07/2012 17:40 20,5 C 63 % 1012,0 hPa 0,0 mm 13,0 km/h (3 Bft) S-SO 202 0 min 0 W/m 13,2 C 20,5 C 21,6 km/h (4 Bft)
06/07/2012 17:50 20,8 C 64 % 1011,9 hPa 0,0 mm 5,4 km/h (2 Bft) O-SO 247 0 min 0 W/m 13,7 C 20,8 C 7,9 km/h (2 Bft)
06/07/2012 18:00 21,3 C 63 % 1011,9 hPa 0,0 mm 6,8 km/h (2 Bft) SO 225 0 min 0 W/m 14,0 C 21,3 C 10,1 km/h (2 Bft)
06/07/2012 18:10 21,2 C 60 % 1011,9 hPa 0,0 mm 6,1 km/h (2 Bft) SO 225 0 min 0 W/m 13,1 C 21,2 C 19,1 km/h (3 Bft)
06/07/2012 18:20 21,1 C 60 % 1011,9 hPa 0,0 mm 6,1 km/h (2 Bft) S-SO 202 0 min 0 W/m 13,0 C 21,1 C 10,1 km/h (2 Bft)
06/07/2012 18:30 20,8 C 60 % 1011,9 hPa 0,0 mm 6,1 km/h (2 Bft) N 360 0 min 0 W/m 12,7 C 20,8 C 6,1 km/h (2 Bft)
06/07/2012 18:40 20,2 C 62 % 1011,9 hPa 0,0 mm 4,3 km/h (1 Bft) SO 225 0 min 0 W/m 12,7 C 20,2 C 8,6 km/h (2 Bft)
06/07/2012 18:50 19,7 C 63 % 1012,0 hPa 0,0 mm 11,9 km/h (2 Bft) S-SO 202 0 min 0 W/m 12,5 C 19,7 C 20,5 km/h (4 Bft)
06/07/2012 19:00 18,9 C 69 % 1012,2 hPa 0,0 mm 5,4 km/h (2 Bft) S-SO 202 0 min 0 W/m 13,1 C 18,9 C 11,9 km/h (2 Bft)
06/07/2012 19:10 18,3 C 73 % 1012,3 hPa 0,0 mm 4,0 km/h (1 Bft) O 270 0 min 0 W/m 13,4 C 18,3 C 10,8 km/h (2 Bft)
06/07/2012 19:20 18,1 C 74 % 1012,3 hPa 0,0 mm 1,8 km/h (1 Bft) O-SO 247 0 min 0 W/m 13,4 C 18,1 C 4,0 km/h (1 Bft)
06/07/2012 19:30 18,1 C 73 % 1012,3 hPa 0,0 mm 1,1 km/h (1 Bft) SO 225 0 min 0 W/m 13,2 C 18,1 C 4,3 km/h (1 Bft)
06/07/2012 19:40 17,8 C 72 % 1012,5 hPa 0,0 mm 3,6 km/h (1 Bft) SO 225 0 min 0 W/m 12,7 C 17,8 C 7,2 km/h (2 Bft)
06/07/2012 19:50 17,7 C 74 % 1012,4 hPa 0,0 mm 2,2 km/h (1 Bft) SO 225 0 min 0 W/m 13,0 C 17,7 C 6,8 km/h (2 Bft)
06/07/2012 20:00 17,5 C 74 % 1012,4 hPa 0,0 mm 7,2 km/h (2 Bft) SO 225 0 min 0 W/m 12,8 C 17,5 C 9,7 km/h (2 Bft)
06/07/2012 20:10 17,4 C 74 % 1012,4 hPa 0,0 mm 6,8 km/h (2 Bft) SO 225 0 min 0 W/m 12,7 C 17,4 C 11,9 km/h (2 Bft)
06/07/2012 20:20 17,7 C 73 % 1012,4 hPa 0,0 mm 6,5 km/h (2 Bft) SO 225 0 min 0 W/m 12,8 C 17,7 C 6,5 km/h (2 Bft)
06/07/2012 20:30 17,8 C 72 % 1012,4 hPa 0,0 mm 4,7 km/h (1 Bft) S-SO 202 0 min 0 W/m 12,7 C 17,8 C 11,9 km/h (2 Bft)
06/07/2012 20:40 17,9 C 73 % 1012,4 hPa 0,0 mm 1,1 km/h (1 Bft) O-SO 247 0 min 0 W/m 13,0 C 17,9 C 3,6 km/h (1 Bft)
06/07/2012 20:50 17,8 C 74 % 1012,4 hPa 0,0 mm 2,5 km/h (1 Bft) S-SO 202 0 min 0 W/m 13,1 C 17,8 C 6,1 km/h (2 Bft)
06/07/2012 21:00 17,8 C 75 % 1012,4 hPa 0,0 mm 5,0 km/h (1 Bft) S 180 0 min 0 W/m 13,3 C 17,8 C 9,4 km/h (2 Bft)
06/07/2012 21:10 17,5 C 77 % 1012,5 hPa 0,0 mm 4,3 km/h (1 Bft) SO 225 0 min 0 W/m 13,4 C 17,5 C 6,1 km/h (2 Bft)
06/07/2012 21:20 17,2 C 78 % 1012,4 hPa 0,0 mm 4,0 km/h (1 Bft) SO 225 0 min 0 W/m 13,3 C 17,2 C 6,1 km/h (2 Bft)
06/07/2012 21:30 16,9 C 79 % 1012,4 hPa 0,0 mm 1,8 km/h (1 Bft) S-SO 202 0 min 0 W/m 13,2 C 16,9 C 3,6 km/h (1 Bft)
06/07/2012 21:40 16,6 C 79 % 1012,5 hPa 0,0 mm 1,1 km/h (1 Bft) S-SO 202 0 min 0 W/m 12,9 C 16,6 C 4,0 km/h (1 Bft)
06/07/2012 21:50 16,3 C 79 % 1012,7 hPa 0,0 mm 2,5 km/h (1 Bft) S-SO 202 0 min 0 W/m 12,6 C 16,3 C 4,3 km/h (1 Bft)
06/07/2012 22:00 15,9 C 78 % 1012,7 hPa 0,0 mm 3,6 km/h (1 Bft) S-SO 202 0 min 0 W/m 12,1 C 15,9 C 3,6 km/h (1 Bft)
06/07/2012 22:10 15,8 C 78 % 1012,8 hPa 0,0 mm 2,2 km/h (1 Bft) SO 225 0 min 0 W/m 12,0 C 15,8 C 4,3 km/h (1 Bft)
06/07/2012 22:20 15,6 C 79 % 1013,0 hPa 0,0 mm 2,5 km/h (1 Bft) S-SO 202 0 min 0 W/m 12,0 C 15,6 C 6,5 km/h (2 Bft)
06/07/2012 22:30 15,4 C 79 % 1013,0 hPa 0,0 mm 1,4 km/h (1 Bft) SO 225 0 min 0 W/m 11,8 C 15,4 C 3,2 km/h (1 Bft)
06/07/2012 22:40 15,2 C 79 % 1013,0 hPa 0,0 mm 1,4 km/h (1 Bft) SO 225 0 min 0 W/m 11,6 C 15,2 C 4,0 km/h (1 Bft)
06/07/2012 22:50 15,0 C 80 % 1013,2 hPa 0,0 mm 0,4 km/h (0 Bft) SO 225 0 min 0 W/m 11,6 C 15,0 C 4,0 km/h (1 Bft)
06/07/2012 23:00 14,8 C 81 % 1013,2 hPa 0,0 mm 0,0 km/h (0 Bft) S-SO 202 0 min 0 W/m 11,6 C 14,8 C 0,0 km/h (0 Bft)
06/07/2012 23:10 14,6 C 82 % 1013,2 hPa 0,0 mm 0,0 km/h (0 Bft) S-SO 202 0 min 0 W/m 11,6 C 14,6 C 0,0 km/h (0 Bft)
06/07/2012 23:20 14,5 C 82 % 1013,2 hPa 0,0 mm 1,8 km/h (1 Bft) SO 225 0 min 0 W/m 11,5 C 14,5 C 4,0 km/h (1 Bft)
06/07/2012 23:30 14,3 C 83 % 1013,1 hPa 0,0 mm 0,0 km/h (0 Bft) SO 225 0 min 0 W/m 11,5 C 14,3 C 0,0 km/h (0 Bft)
06/07/2012 23:40 14,1 C 83 % 1013,2 hPa 0,0 mm 0,0 km/h (0 Bft) S-SO 202 0 min 0 W/m 11,3 C 14,1 C 0,0 km/h (0 Bft)
06/07/2012 23:50 13,9 C 83 % 1013,2 hPa 0,0 mm 0,0 km/h (0 Bft) S 180 0 min 0 W/m 11,1 C 13,9 C 0,0 km/h (0 Bft)
_ Min-Heure 06:50 18:30 07:00 - 23:50 - - - - 23:50 06:50 23:50
Minimum _ 12,6 C 60 % 1011,1 hPa - 0,0 km/h (0 Bft) - - - - 11,1 C 12,6 C 0,0 km/h (0 Bft)
_ Max-Heure 18:00 07:20 23:50 12:40 13:40 - - 23:50 23:50 16:50 18:00 09:50
Maximum _ 21,3 C 94 % 1013,2 hPa 0,5 mm 14,0 km/h
S-SO (3 Bft)
- - 0 min 0 W/m 15,2 C 21,3 C 23,4 km/h
S (4 Bft)
Moyenne _ 16,0 C 82 % 1011,8 hPa #1,3 mm 4,9 km/h (1 Bft) SO - #0 min. 0 W/m 12,9 C 16,0 C 8,0 km/h (2 Bft)
Saint Bonnet de Bellac- Haute Vienne - France